| time (UTC) | temp F | wind direction | speed MPH | gust MPH | rain 1hr in | rain 24hr in | rain mn in | humidity % | barometer mb |
| 20260509201556 | 63 | 255 | 11.0 | 17.0 | 0.00 | 0.20 | 0.20 | 76 | 1008.5 |
| 20260509200056 | 64 | 207 | 9.0 | 19.0 | 0.00 | 0.20 | 0.20 | 76 | 1008.5 |
| 20260509194559 | 62 | 254 | 11.0 | 22.0 | 0.00 | 0.20 | 0.20 | 77 | 1008.8 |
| 20260509193055 | 61 | 230 | 13.0 | 20.0 | 0.00 | 0.20 | 0.20 | 77 | 1009.1 |
| 20260509191559 | 61 | 224 | 13.0 | 18.0 | 0.00 | 0.20 | 0.20 | 78 | 1009.4 |
| 20260509190057 | 61 | 232 | 9.0 | 17.0 | 0.00 | 0.20 | 0.20 | 82 | 1009.3 |
| 20260509184554 | 59 | 240 | 12.0 | 16.0 | 0.00 | 0.20 | 0.20 | 80 | 1009.7 |
| 20260509183100 | 60 | 205 | 10.0 | 16.0 | 0.00 | 0.20 | 0.20 | 82 | 1009.7 |
| 20260509181608 | 58 | 258 | 9.0 | 15.0 | 0.00 | 0.20 | 0.20 | 85 | 1009.7 |
| 20260509180114 | 57 | 245 | 8.0 | 14.0 | 0.00 | 0.20 | 0.20 | 86 | 1009.7 |
| 20260509174556 | 56 | 204 | 11.0 | 17.0 | 0.00 | 0.20 | 0.20 | 86 | 1009.6 |
| 20260509173108 | 57 | 225 | 10.0 | 14.0 | 0.00 | 0.20 | 0.20 | 87 | 1009.7 |
| 20260509171604 | 57 | 232 | 10.0 | 17.0 | 0.00 | 0.20 | 0.20 | 90 | 1009.5 |
| 20260509170055 | 57 | 243 | 9.0 | 15.0 | 0.00 | 0.20 | 0.20 | 91 | 1009.4 |
| 20260509164557 | 56 | 226 | 9.0 | 11.0 | 0.00 | 0.20 | 0.20 | 92 | 1009.4 |
| 20260509163055 | 54 | 231 | 7.0 | 14.0 | 0.01 | 0.20 | 0.20 | 93 | 1009.2 |
| 20260509161602 | 53 | 210 | 11.0 | 20.0 | 0.01 | 0.20 | 0.20 | 93 | 1009.1 |
| 20260509160100 | 53 | 205 | 10.0 | 17.0 | 0.02 | 0.20 | 0.20 | 94 | 1008.8 |
| 20260509154612 | 52 | 206 | 11.0 | 18.0 | 0.03 | 0.20 | 0.20 | 93 | 1008.9 |
| 20260509153111 | 52 | 219 | 11.0 | 15.0 | 0.02 | 0.19 | 0.19 | 94 | 1009.2 |
| 20260509151609 | 52 | 206 | 10.0 | 13.0 | 0.03 | 0.19 | 0.19 | 94 | 1009.3 |
| 20260509150100 | 52 | 212 | 10.0 | 17.0 | 0.03 | 0.18 | 0.18 | 94 | 1009.5 |
| 20260509144556 | 52 | 229 | 8.0 | 15.0 | 0.04 | 0.17 | 0.17 | 94 | 1009.5 |
| 20260509143108 | 52 | 218 | 9.0 | 14.0 | 0.04 | 0.17 | 0.17 | 94 | 1009.5 |
| 20260509141557 | 51 | 186 | 11.0 | 16.0 | 0.04 | 0.16 | 0.16 | 94 | 1009.5 |
| 20260509140057 | 51 | 198 | 11.0 | 17.0 | 0.04 | 0.15 | 0.15 | 94 | 1009.6 |
| 20260509134557 | 51 | 221 | 10.0 | 17.0 | 0.03 | 0.13 | 0.13 | 94 | 1009.7 |
| 20260509133108 | 51 | 206 | 9.0 | 15.0 | 0.03 | 0.13 | 0.13 | 93 | 1009.8 |
| 20260509131605 | 51 | 223 | 11.0 | 17.0 | 0.03 | 0.12 | 0.12 | 94 | 1009.8 |
| 20260509130114 | 51 | 212 | 8.0 | 13.0 | 0.02 | 0.11 | 0.11 | 94 | 1009.9 |
| 20260509124558 | 51 | 212 | 8.0 | 14.0 | 0.02 | 0.10 | 0.10 | 94 | 1009.9 |
| 20260509123056 | 50 | 223 | 8.0 | 13.0 | 0.04 | 0.10 | 0.10 | 94 | 1009.8 |
| 20260509121556 | 50 | 193 | 7.0 | 11.0 | 0.04 | 0.09 | 0.09 | 94 | 1010.0 |
| 20260509120059 | 50 | 216 | 7.0 | 12.0 | 0.04 | 0.09 | 0.09 | 93 | 1009.9 |
| 20260509114555 | 50 | 198 | 8.0 | 12.0 | 0.05 | 0.08 | 0.08 | 93 | 1009.9 |
| 20260509113058 | 50 | 204 | 9.0 | 13.0 | 0.04 | 0.06 | 0.06 | 93 | 1009.8 |
| 20260509111559 | 50 | 195 | 9.0 | 14.0 | 0.03 | 0.05 | 0.05 | 92 | 1009.7 |
| 20260509110055 | 50 | 204 | 9.0 | 14.0 | 0.03 | 0.05 | 0.05 | 92 | 1009.8 |
| 20260509104610 | 50 | 207 | 9.0 | 16.0 | 0.02 | 0.03 | 0.03 | 92 | 1009.7 |
| 20260509103110 | 50 | 188 | 10.0 | 14.0 | 0.01 | 0.02 | 0.02 | 91 | 1009.8 |
| 20260509101558 | 50 | 202 | 10.0 | 15.0 | 0.01 | 0.02 | 0.02 | 91 | 1009.7 |
| 20260509100055 | 50 | 219 | 11.0 | 18.0 | 0.02 | 0.02 | 0.02 | 91 | 1009.9 |
| 20260509094558 | 50 | 223 | 10.0 | 17.0 | 0.01 | 0.01 | 0.01 | 91 | 1009.9 |
| 20260509093101 | 50 | 207 | 12.0 | 17.0 | 0.01 | 0.01 | 0.01 | 92 | 1010.2 |
| 20260509091555 | 50 | 208 | 11.0 | 16.0 | 0.01 | 0.01 | 0.01 | 94 | 1010.2 |
| 20260509090059 | 48 | 228 | 5.0 | 7.0 | 0.00 | 0.00 | 0.00 | 94 | 1010.2 |
| 20260509084607 | 48 | 199 | 1.0 | 3.0 | 0.00 | 0.00 | 0.00 | 95 | 1010.1 |
| 20260509083103 | 48 | 0 | 0.0 | 5.0 | 0.00 | 0.00 | 0.00 | 94 | 1009.8 |
| 20260509081608 | 48 | 309 | 0.0 | 3.0 | 0.00 | 0.00 | 0.00 | 94 | 1009.6 |
| 20260509074608 | 48 | 0 | 0.0 | 1.0 | 0.00 | 0.00 | 0.00 | 94 | 1009.2 |
| 20260509073111 | 48 | 0 | 0.0 | 2.0 | 0.00 | 0.00 | 0.00 | 94 | 1009.1 |
| 20260509071611 | 48 | 0 | 0.0 | 2.0 | 0.00 | 0.00 | 0.00 | 93 | 1009.3 |
| 20260509070107 | 48 | 20 | 2.0 | 4.0 | 0.00 | 0.00 | 0.00 | 93 | 1009.3 |
| 20260509064612 | 48 | 1 | 3.0 | 5.0 | 0.00 | 0.00 | 0.00 | 92 | 1009.3 |
| 20260509063113 | 48 | 360 | 2.0 | 4.0 | 0.00 | 0.00 | 0.00 | 92 | 1009.5 |
| 20260509061619 | 49 | 57 | 0.0 | 3.0 | 0.00 | 0.00 | 0.00 | 92 | 1009.9 |
| 20260509060114 | 48 | 0 | 0.0 | 2.0 | 0.00 | 0.00 | 0.00 | 93 | 1010.3 |
| 20260509054600 | 48 | 0 | 0.0 | 0.0 | 0.00 | 0.00 | 0.00 | 93 | 1010.2 |
| 20260509053107 | 48 | 0 | 0.0 | 2.0 | 0.00 | 0.00 | 0.00 | 93 | 1010.6 |
| 20260509051601 | 48 | 0 | 0.0 | 2.0 | 0.00 | 0.00 | 0.00 | 93 | 1010.6 |
| 20260509050057 | 48 | 67 | 0.0 | 2.0 | 0.00 | 0.00 | 0.00 | 92 | 1010.7 |
| 20260509044556 | 48 | 0 | 0.0 | 1.0 | 0.00 | 0.00 | 0.00 | 93 | 1010.9 |
| 20260509043057 | 48 | 0 | 0.0 | 2.0 | 0.00 | 0.00 | 0.00 | 92 | 1011.1 |
| 20260509041556 | 49 | 0 | 0.0 | 2.0 | 0.00 | 0.00 | 0.00 | 92 | 1011.3 |
| 20260509040055 | 49 | 0 | 0.0 | 3.0 | 0.00 | 0.00 | 0.00 | 92 | 1011.5 |
| 20260509034556 | 49 | 0 | 1.0 | 2.0 | 0.00 | 0.00 | 0.00 | 91 | 1011.8 |
| 20260509033057 | 49 | 57 | 1.0 | 4.0 | 0.00 | 0.00 | 0.00 | 90 | 1012.1 |
| 20260509031559 | 50 | 84 | 1.0 | 4.0 | 0.00 | 0.00 | 0.00 | 89 | 1012.3 |
| 20260509030059 | 50 | 39 | 3.0 | 7.0 | 0.00 | 0.00 | 0.00 | 89 | 1012.3 |
| 20260509024601 | 50 | 28 | 3.0 | 5.0 | 0.00 | 0.00 | 0.00 | 89 | 1012.3 |
| 20260509023100 | 50 | 360 | 5.0 | 6.0 | 0.00 | 0.00 | 0.00 | 88 | 1012.1 |
| 20260509021555 | 50 | 18 | 2.0 | 5.0 | 0.00 | 0.00 | 0.00 | 87 | 1012.1 |
| 20260509020059 | 50 | 9 | 3.0 | 6.0 | 0.00 | 0.00 | 0.00 | 86 | 1011.7 |
| 20260509014557 | 51 | 25 | 0.0 | 4.0 | 0.00 | 0.00 | 0.00 | 84 | 1011.6 |
| 20260509013057 | 51 | 6 | 0.0 | 3.0 | 0.00 | 0.00 | 0.00 | 84 | 1011.3 |
| 20260509011557 | 50 | 64 | 1.0 | 3.0 | 0.00 | 0.00 | 0.00 | 83 | 1011.0 |
| 20260509010055 | 51 | 32 | 2.0 | 4.0 | 0.00 | 0.00 | 0.00 | 83 | 1010.9 |
| 20260509004606 | 51 | 101 | 2.0 | 4.0 | 0.00 | 0.00 | 0.00 | 84 | 1010.9 |
| 20260509003058 | 51 | 92 | 2.0 | 4.0 | 0.00 | 0.00 | 0.00 | 85 | 1011.0 |
| 20260509001556 | 51 | 84 | 2.0 | 3.0 | 0.00 | 0.00 | 0.00 | 84 | 1011.0 |
| 20260509000058 | 52 | 0 | 0.0 | 3.0 | 0.00 | 0.00 | 0.00 | 84 | 1011.0 |
| 20260508234556 | 52 | 0 | 0.0 | 3.0 | 0.00 | 0.00 | 0.00 | 83 | 1011.1 |
| 20260508233055 | 53 | 89 | 1.0 | 3.0 | 0.00 | 0.00 | 0.00 | 83 | 1011.0 |
| 20260508231555 | 53 | 65 | 0.0 | 3.0 | 0.00 | 0.00 | 0.00 | 82 | 1011.0 |
| 20260508230100 | 53 | 29 | 2.0 | 3.0 | 0.00 | 0.00 | 0.00 | 81 | 1011.2 |
| 20260508224558 | 54 | 57 | 2.0 | 3.0 | 0.00 | 0.00 | 0.00 | 79 | 1011.2 |
| 20260508223054 | 55 | 129 | 2.0 | 3.0 | 0.00 | 0.00 | 0.00 | 74 | 1011.0 |
| 20260508221559 | 56 | 0 | 0.0 | 2.0 | 0.00 | 0.00 | 0.00 | 68 | 1011.1 |
| 20260508220055 | 56 | 221 | 1.0 | 5.0 | 0.00 | 0.00 | 0.00 | 70 | 1011.1 |
| 20260508214554 | 56 | 217 | 3.0 | 6.0 | 0.00 | 0.00 | 0.00 | 69 | 1011.1 |
| 20260508213058 | 56 | 179 | 2.0 | 4.0 | 0.00 | 0.00 | 0.00 | 69 | 1011.3 |
| 20260508211559 | 55 | 224 | 3.0 | 5.0 | 0.00 | 0.00 | 0.00 | 70 | 1011.5 |
| 20260508210055 | 55 | 218 | 2.0 | 4.0 | 0.00 | 0.00 | 0.00 | 73 | 1011.6 |
| 20260508204557 | 55 | 252 | 2.0 | 7.0 | 0.00 | 0.00 | 0.00 | 74 | 1011.7 |
| 20260508203106 | 54 | 255 | 5.0 | 13.0 | 0.00 | 0.00 | 0.00 | 72 | 1011.9 |